Starlink 31377

operational
NORAD ID: 58938 Int'l Des: 2024-027 Owner: SPXS Country: US Constellation: starlink
LEOCIRCULAR

About Starlink 31377

Description loading...

Live Position

Loading 3D Globe...

Upcoming Passes

Altitude History

Altitude vs Time

uPlot chart will show altitude changes over time

Two-Line Element Set

1 58938U 24027H 25260.66581737 .00000823 00000-0 39928-4 0 9994
2 58938 53.1602 33.5789 0001120 31.4661 328.6406 15.30192685 90831
Epoch: Sep 17, 2025 • Age: 22 hours

Current Status

Altitude 481.3 km
Velocity 7.63 km/s
Sub-Earth Point 52.91°N, 83.88°W
Launch Date Feb 10, 2024
Age 1.6 years
Type internet

Technical Details

Classification Payload
Mass 730.00 kg
Dry Mass 700.00 kg
Total Mass 730.00 kg
Length 0.30 m
Diameter 4.10 m
Span 29.00 m
Shape Box + pan
Manufacturer SPXS
Bus Type Starlink V2M
Phase Status In Orbit
Owner/State SPXS/US

Large Constellations

Loading constellations...